Temp
66 66 67 68 68 68 67 67 67 67 67 68 66 67 66 66 67 66 65 65 65 65 65 65 67 69 68 68 67 66 67 67 67 67 67 66 66 68 69 69 69 71
67 67 68 68 68 68 67 67 68 68 68 68 68 68 67 67 66 67 67 66 65 65 65 65 66 67 67 66 66 66 66 67 66 68 67 67 66 67 68 69 70 71
66 66 67 67 67 67 67 68 68 68 68 69 69 68 68 68 67 67 67 67 67 66 64 65 65 66 65 66 66 66 67 67 66 67 67 67 66 67 68 69 71 71
65 66 66 67 67 67 68 68 68 66 66 67 69 70 69 68 68 67 67 67 67 66 65 65 65 65 66 67 67 66 67 67 68 67 66 65 66 67 67 68 69 71
64 65 67 68 68 67 67 68 67 67 68 68 69 69 68 67 67 67 66 67 67 66 65 65 65 65 65 66 67 66 67 67 67 67 65 64 65 65 67 65 66 68
64 67 68 68 67 66 66 66 67 68 68 66 67 68 67 66 67 67 67 67 67 66 65 65 64 64 66 65 65 66 67 66 66 67 65 65 65 66 67 66 67 67
62 65 65 66 65 65 65 66 67 68 69 69 68 66 65 65 67 68 69 69 69 68 68 66 65 65 66 66 66 66 67 66 66 67 67 65 65 65 66 65 68 69
61 64 65 65 64 63 64 67 68 68 68 69 67 66 66 66 67 68 68 69 69 69 69 69 68 68 67 66 66 66 66 66 66 67 66 66 64 64 64 66 67 69
60 62 64 64 63 63 64 66 67 68 69 67 66 66 67 67 67 67 67 68 68 68 70 69 68 68 67 66 66 66 66 65 66 67 67 65 64 64 65 67 68 70
61 61 62 62 63 63 63 64 65 67 68 66 66 67 67 67 67 67 67 67 67 68 69 69 68 67 67 67 67 67 67 66 67 67 67 66 65 66 67 68 70 70
59 60 61 61 62 62 62 63 64 65 66 66 66 66 67 67 66 67 67 67 66 67 68 68 68 67 66 66 67 68 68 67 66 67 67 66 65 65 66 67 71 70
59 59 59 60 61 62 63 65 66 66 66 66 66 66 67 66 66 66 67 68 68 69 70 70 69 68 68 67 68 68 67 66 66 65 65 64 63 63 66 68 71 71
58 59 59 60 61 62 64 65 67 66 66 66 67 67 66 66 66 66 66 68 69 69 70 70 70 70 69 68 68 68 66 65 66 66 65 64 63 64 65 71 72 72
56 58 59 60 61 63 64 64 64 65 65 66 66 65 65 66 66 66 66 67 68 69 70 70 69 69 70 69 69 69 67 66 65 65 67 65 63 63 65 66 69 70
56 56 57 59 60 61 63 64 64 64 64 65 65 65 65 66 66 66 66 65 67 68 69 68 68 68 69 68 68 68 67 65 64 66 67 66 64 63 64 66 69 69
55 56 57 58 58 60 62 64 65 65 64 65 65 66 65 65 65 65 66 66 65 67 68 67 67 68 63 57 59 67 65 64 64 64 64 63 63 63 65 64 65 67
55 55 56 56 58 59 62 64 65 65 64 65 64 64 63 63 63 63 64 65 66 66 66 65 65 65 52 48 50 53 63 63 64 65 64 62 63 64 63 64 66 69
54 55 55 55 56 56 58 60 61 62 62 63 63 62 62 61 60 61 62 63 64 66 65 63 64 54 46 47 47 49 55 65 65 65 64 64 65 66 66 65 65 64
53 54 54 54 54 54 53 53 54 56 55 55 56 58 59 58 59 59 60 61 62 62 62 59 58 45 44 46 45 47 50 59 68 67 65 65 66 66 65 65 64 64
52 53 53 53 53 52 51 51 51 50 50 50 51 53 54 54 54 55 56 56 57 57 57 57 56 45 42 44 44 45 47 56 67 66 65 65 65 64 63 64 64 64
51 52 51 52 53 52 50 50 48 48 48 48 48 47 48 48 49 49 50 51 51 52 52 52 50 42 41 42 43 45 47 53 63 62 62 61 61 62 63 63 64 65
49 51 51 52 52 51 50 48 48 47 46 47 47 47 47 47 47 47 47 48 49 49 49 48 46 41 41 43 44 45 49 61 61 60 59 59 59 60 60 61 62 64
49 50 50 50 51 51 50 49 48 46 46 47 46 46 46 45 45 45 46 46 47 47 46 45 46 42 41 43 45 47 52 61 61 62 60 59 59 59 60 60 61 63
50 50 49 49 49 50 49 49 49 50 48 47 45 45 45 45 45 45 45 45 45 45 45 45 46 43 40 41 44 48 53 60 62 61 59 58 58 58 59 58 56 50
51 50 49 48 48 48 49 49 49 48 48 47 46 45 44 45 45 43 43 43 44 44 46 44 44 43 40 40 42 46 55 60 61 60 58 57 57 55 56 56 55 51
51 50 49 49 49 48 49 49 50 48 47 46 45 45 44 44 44 43 42 42 43 43 43 43 43 43 42 39 41 42 47 59 60 59 56 55 56 56 55 54 55 54
MSLP
1015.77 1015.77 1015.73 1015.65 1015.57 1015.65 1015.73 1015.81 1015.77 1015.77 1015.69 1015.73 1016.05 1016.21 1016.41 1016.37 1016.53 1016.61 1016.61 1016.73 1016.61 1016.81 1017.25 1017.65 1017.65 1017.37 1017.25 1017.25 1017.53 1017.97 1018.29 1018.49 1018.65 1018.93 1019.29 1019.57 1019.73 1019.81 1020.01 1020.01 1020.01 1019.97
1015.73 1015.65 1015.61 1015.45 1015.29 1015.25 1015.29 1015.29 1015.29 1015.29 1015.37 1015.61 1015.77 1015.89 1015.97 1016.13 1016.21 1016.17 1016.25 1016.29 1016.41 1016.65 1016.81 1016.97 1017.25 1017.45 1017.33 1017.13 1017.29 1017.61 1017.89 1018.05 1018.33 1018.53 1018.93 1019.09 1019.41 1019.61 1019.81 1019.85 1019.77 1019.69
1015.77 1015.65 1015.49 1015.49 1015.41 1015.33 1015.21 1014.97 1014.89 1015.01 1015.21 1015.25 1015.41 1015.57 1015.61 1015.73 1015.85 1015.81 1015.85 1016.01 1016.13 1016.17 1016.25 1016.45 1016.85 1017.13 1017.45 1017.33 1017.05 1017.17 1017.41 1017.65 1018.01 1018.21 1018.49 1018.73 1019.05 1019.29 1019.33 1019.57 1019.53 1019.53
1015.65 1015.53 1015.45 1015.37 1015.25 1015.13 1014.89 1014.77 1014.73 1014.89 1014.93 1014.97 1014.97 1015.05 1015.29 1015.49 1015.57 1015.57 1015.69 1015.81 1015.81 1015.77 1015.85 1016.13 1016.49 1016.89 1017.25 1017.25 1016.97 1016.97 1017.09 1017.33 1017.49 1017.89 1018.25 1018.57 1018.93 1019.13 1019.33 1019.45 1019.53 1019.45
1015.73 1015.53 1015.33 1015.21 1015.09 1014.97 1014.81 1014.65 1014.57 1014.49 1014.45 1014.49 1014.53 1014.69 1015.01 1015.25 1015.37 1015.37 1015.49 1015.53 1015.57 1015.65 1015.65 1015.81 1016.09 1016.53 1016.93 1017.21 1017.05 1016.89 1016.97 1017.17 1017.37 1017.53 1017.85 1018.21 1018.49 1019.01 1019.25 1019.61 1019.49 1019.33
1015.77 1015.45 1015.17 1015.05 1014.97 1014.89 1014.73 1014.61 1014.53 1014.29 1014.13 1014.17 1014.29 1014.45 1014.73 1015.01 1015.09 1015.09 1015.21 1015.29 1015.37 1015.49 1015.57 1015.61 1015.85 1016.05 1016.41 1016.97 1017.01 1016.73 1016.81 1017.01 1017.17 1017.37 1017.69 1017.97 1018.37 1018.61 1018.85 1019.21 1019.05 1019.21
1015.89 1015.49 1015.21 1014.97 1014.89 1014.85 1014.77 1014.49 1014.25 1014.05 1013.77 1013.69 1013.93 1014.29 1014.45 1014.65 1014.69 1014.69 1014.77 1014.85 1014.93 1015.09 1015.25 1015.45 1015.65 1015.81 1015.97 1016.25 1016.45 1016.57 1016.61 1016.73 1016.93 1017.17 1017.45 1017.65 1017.89 1018.29 1018.53 1018.97 1018.73 1018.81
1015.77 1015.29 1014.97 1014.81 1014.77 1014.77 1014.57 1014.29 1013.93 1013.77 1013.89 1013.97 1014.13 1014.29 1014.37 1014.41 1014.37 1014.33 1014.37 1014.45 1014.57 1014.65 1014.85 1015.01 1015.17 1015.33 1015.53 1015.81 1016.09 1016.29 1016.41 1016.45 1016.65 1016.89 1017.17 1017.29 1017.53 1017.93 1018.57 1018.89 1018.73 1018.49
1015.73 1015.25 1014.93 1014.77 1014.69 1014.53 1014.41 1014.13 1013.85 1013.65 1013.69 1013.97 1014.13 1014.17 1014.17 1014.21 1014.21 1014.17 1014.17 1014.21 1014.33 1014.37 1014.45 1014.69 1014.89 1015.05 1015.21 1015.45 1015.69 1015.89 1016.01 1016.17 1016.37 1016.57 1016.81 1017.01 1017.33 1017.69 1018.13 1018.49 1018.41 1018.21
1015.65 1015.21 1014.97 1014.81 1014.65 1014.41 1014.25 1014.01 1013.81 1013.65 1013.57 1013.77 1013.89 1013.89 1013.93 1013.97 1014.05 1014.05 1014.05 1014.05 1014.13 1014.17 1014.25 1014.41 1014.65 1014.81 1014.97 1015.13 1015.33 1015.49 1015.61 1015.85 1016.13 1016.33 1016.49 1016.69 1016.89 1017.25 1017.69 1017.93 1017.89 1017.85
1015.89 1015.41 1014.97 1014.69 1014.53 1014.33 1014.13 1013.89 1013.73 1013.65 1013.53 1013.57 1013.69 1013.69 1013.69 1013.77 1013.89 1013.89 1013.89 1013.89 1013.93 1013.93 1014.01 1014.13 1014.29 1014.49 1014.73 1014.89 1014.97 1015.05 1015.25 1015.53 1015.97 1016.21 1016.37 1016.57 1016.69 1016.89 1017.57 1017.89 1017.53 1017.53
1015.93 1015.53 1015.17 1014.81 1014.41 1014.13 1013.93 1013.69 1013.53 1013.49 1013.45 1013.45 1013.45 1013.45 1013.41 1013.45 1013.57 1013.65 1013.65 1013.61 1013.61 1013.65 1013.69 1013.77 1013.93 1014.17 1014.41 1014.65 1014.77 1014.89 1015.05 1015.29 1015.61 1016.09 1016.53 1016.57 1016.53 1016.85 1017.37 1017.53 1017.21 1017.25
1016.21 1015.73 1015.29 1014.85 1014.33 1013.97 1013.69 1013.49 1013.29 1013.21 1013.29 1013.29 1013.17 1013.17 1013.13 1013.21 1013.29 1013.37 1013.33 1013.33 1013.29 1013.29 1013.33 1013.37 1013.57 1013.85 1014.13 1014.37 1014.57 1014.77 1014.97 1015.13 1015.41 1015.81 1016.13 1016.33 1016.33 1016.69 1017.45 1017.21 1017.01 1017.01
1016.53 1016.01 1015.53 1015.05 1014.53 1013.97 1013.61 1013.33 1013.21 1013.13 1013.09 1013.01 1012.97 1012.97 1012.97 1012.93 1012.97 1013.01 1013.05 1013.09 1013.05 1013.05 1013.01 1013.09 1013.33 1013.61 1013.81 1014.05 1014.25 1014.49 1014.77 1015.05 1015.41 1015.77 1015.97 1016.25 1016.41 1016.81 1017.37 1017.53 1017.09 1016.89
1016.69 1016.17 1015.69 1015.21 1014.65 1014.01 1013.53 1013.21 1013.01 1012.89 1012.81 1012.73 1012.65 1012.61 1012.61 1012.57 1012.57 1012.61 1012.73 1012.89 1012.89 1012.93 1012.97 1013.09 1013.25 1013.37 1013.49 1013.77 1014.01 1014.33 1014.61 1015.01 1015.25 1015.61 1015.81 1016.05 1016.37 1016.97 1017.33 1017.29 1016.93 1016.89
1016.89 1016.37 1015.85 1015.29 1014.77 1014.17 1013.53 1013.17 1012.97 1012.77 1012.61 1012.49 1012.37 1012.29 1012.25 1012.25 1012.37 1012.37 1012.45 1012.61 1012.77 1012.77 1012.81 1012.89 1013.05 1013.05 1013.25 1013.57 1013.73 1014.01 1014.37 1014.61 1015.05 1015.41 1015.65 1016.05 1016.69 1017.05 1016.97 1016.73 1016.85 1016.85
1017.09 1016.57 1016.09 1015.49 1014.93 1014.33 1013.57 1013.09 1012.89 1012.77 1012.57 1012.33 1012.21 1012.25 1012.21 1012.21 1012.29 1012.33 1012.33 1012.37 1012.37 1012.57 1012.65 1012.73 1012.77 1012.93 1013.29 1013.61 1013.85 1013.97 1014.01 1014.41 1014.65 1015.09 1015.61 1015.81 1016.33 1017.05 1017.25 1016.85 1016.81 1016.77
1017.33 1016.81 1016.37 1015.89 1015.45 1015.01 1014.49 1013.85 1013.33 1013.05 1012.85 1012.57 1012.29 1012.21 1012.13 1012.13 1012.21 1012.21 1012.25 1012.25 1012.25 1012.25 1012.41 1012.49 1012.61 1012.93 1013.37 1013.61 1013.89 1013.97 1013.93 1014.05 1014.45 1014.97 1015.45 1015.77 1016.25 1016.49 1016.65 1016.69 1016.81 1016.97
1017.73 1017.17 1016.77 1016.37 1016.01 1015.69 1015.37 1014.97 1014.49 1014.09 1013.93 1013.69 1013.17 1012.57 1012.29 1012.21 1012.21 1012.25 1012.21 1012.25 1012.25 1012.17 1012.41 1012.73 1012.93 1013.25 1013.29 1013.49 1013.85 1013.93 1013.85 1013.89 1014.17 1014.53 1015.13 1015.49 1016.05 1016.25 1016.33 1016.45 1016.65 1016.77
1018.17 1017.61 1017.21 1016.85 1016.49 1016.17 1015.89 1015.61 1015.41 1015.25 1015.01 1014.73 1014.17 1013.57 1013.17 1012.93 1012.85 1012.73 1012.73 1012.81 1012.69 1012.49 1012.65 1012.97 1013.13 1013.53 1013.41 1013.61 1013.89 1013.97 1013.93 1013.93 1014.09 1014.57 1015.05 1015.41 1015.77 1015.97 1016.13 1016.29 1016.37 1016.49
1018.61 1018.05 1017.73 1017.33 1016.97 1016.69 1016.45 1016.21 1016.05 1015.85 1015.57 1015.37 1015.13 1014.89 1014.61 1014.33 1014.17 1013.97 1013.81 1013.61 1013.53 1013.49 1013.65 1013.77 1013.93 1013.93 1013.65 1013.85 1013.81 1013.73 1013.81 1013.89 1014.33 1014.81 1015.25 1015.65 1015.89 1016.05 1016.17 1016.25 1016.33 1016.37
1019.13 1018.53 1018.17 1017.77 1017.41 1017.17 1016.93 1016.73 1016.61 1016.49 1016.13 1015.81 1015.57 1015.37 1015.25 1015.01 1014.85 1014.77 1014.61 1014.25 1014.01 1014.01 1014.17 1014.65 1015.01 1015.01 1014.21 1013.73 1013.61 1013.65 1013.81 1014.09 1014.61 1015.09 1015.53 1015.89 1016.21 1016.45 1016.57 1016.57 1016.49 1016.45
1019.53 1018.97 1018.61 1018.25 1017.85 1017.53 1017.37 1017.25 1017.05 1016.93 1016.61 1016.21 1016.01 1015.89 1015.81 1015.77 1015.65 1015.53 1015.33 1014.93 1014.57 1014.65 1014.81 1015.33 1015.45 1015.61 1015.21 1014.13 1013.49 1013.61 1013.81 1014.37 1014.81 1015.17 1015.69 1016.05 1016.37 1016.61 1016.73 1016.77 1016.77 1016.69
1019.73 1019.37 1019.01 1018.73 1018.37 1018.05 1017.81 1017.65 1017.41 1017.17 1017.05 1016.81 1016.61 1016.57 1016.49 1016.53 1016.21 1015.97 1015.77 1015.73 1015.33 1015.37 1015.69 1016.01 1015.93 1015.69 1015.33 1015.13 1014.29 1013.69 1013.89 1014.49 1014.85 1015.21 1015.85 1016.29 1016.61 1016.77 1016.81 1017.05 1017.41 1017.45
1019.97 1019.65 1019.41 1019.13 1018.89 1018.69 1018.37 1018.05 1017.93 1017.81 1017.69 1017.41 1017.25 1017.09 1017.25 1017.25 1016.65 1016.21 1016.25 1016.45 1016.05 1016.13 1016.33 1016.73 1016.17 1016.01 1015.69 1015.21 1015.29 1015.01 1014.61 1014.65 1014.93 1015.41 1016.05 1016.53 1016.69 1017.05 1017.25 1017.45 1017.77 1018.01
1020.25 1020.01 1019.73 1019.45 1019.25 1019.13 1018.93 1018.57 1018.25 1018.13 1018.05 1017.93 1017.73 1017.61 1017.53 1017.37 1017.05 1016.81 1016.89 1016.97 1016.73 1016.81 1017.05 1017.09 1016.73 1016.65 1016.17 1015.97 1016.17 1016.09 1015.73 1015.29 1015.17 1015.49 1016.29 1016.73 1016.85 1017.05 1017.49 1017.89 1018.09 1018.29
Wind_Speed
6 5 6 8 8 8 8 8 7 9 9 8 8 8 10 10 9 10 9 8 9 11 7 6 8 10 9 8 8 8 9 11 9 9 10 10 9 10 10 12 11 9
7 7 7 8 8 7 8 8 9 10 9 7 7 7 8 9 10 11 10 11 10 9 9 9 8 8 9 8 8 9 9 9 11 9 9 12 11 10 12 12 12 10
7 7 8 10 9 8 8 8 8 7 6 7 7 7 7 8 9 11 11 10 10 12 11 8 9 9 8 9 10 10 9 10 10 11 10 11 10 11 12 11 10 11
10 9 9 8 8 10 9 8 7 6 6 8 9 7 6 7 9 11 10 11 10 11 9 9 9 7 8 10 10 9 9 10 10 10 9 7 9 11 10 8 8 8
10 9 9 10 8 8 9 9 8 7 8 8 8 7 6 7 10 10 10 10 10 9 9 8 8 8 8 8 9 9 10 9 9 9 9 9 8 8 9 8 11 11
9 10 10 9 9 8 7 8 8 8 8 9 9 6 7 8 10 11 10 10 11 10 11 10 8 9 10 8 9 9 9 9 9 11 10 11 10 10 8 10 10 11
11 10 10 8 9 7 8 9 9 10 10 9 8 8 8 9 11 12 11 10 11 11 12 12 12 11 10 9 9 10 10 10 9 10 11 9 9 9 7 8 10 12
12 10 9 9 7 8 10 10 11 10 9 8 8 8 9 10 12 11 11 11 11 11 12 12 12 12 11 10 10 11 11 8 8 11 11 11 9 9 8 9 9 10
12 10 10 11 10 8 9 10 11 10 7 7 8 9 10 11 11 12 11 10 10 11 11 12 12 12 11 12 11 12 12 9 9 11 12 12 10 10 11 10 11 11
11 10 10 10 10 9 10 10 10 10 9 9 9 9 10 10 11 11 11 10 11 11 11 11 12 12 12 12 12 12 12 11 11 11 12 12 10 9 10 12 12 10
12 11 10 10 9 8 9 8 9 11 9 9 9 10 10 10 10 10 11 11 11 12 12 12 12 12 12 12 11 11 11 10 10 11 11 9 8 8 9 12 11 10
13 11 11 11 11 10 11 11 10 10 10 10 10 11 10 9 10 10 10 12 12 12 12 12 12 11 12 12 12 12 10 9 10 9 9 8 8 9 10 12 10 10
14 13 12 12 11 10 10 11 11 10 10 10 10 10 10 9 10 11 10 11 12 12 12 12 11 11 11 12 12 12 12 11 10 10 10 8 6 8 10 12 9 8
13 14 13 13 12 12 11 11 11 11 10 9 9 10 10 11 11 10 10 11 12 12 12 11 11 11 12 12 11 11 11 11 11 9 9 9 8 8 9 7 8 7
14 13 12 13 14 13 12 10 10 11 10 10 10 10 9 11 11 11 11 11 12 12 12 10 11 11 10 11 11 11 10 11 11 11 9 8 8 7 10 9 7 6
14 14 14 13 13 13 12 11 10 11 11 10 10 11 11 10 10 11 11 12 12 12 12 11 11 10 9 13 11 10 10 8 8 9 7 5 4 6 8 7 6 6
13 14 13 13 13 13 12 12 11 10 11 12 11 11 11 9 10 11 11 11 12 12 13 11 9 5 10 12 11 11 9 8 8 8 8 7 8 8 6 8 8 7
14 14 13 13 13 13 13 13 11 11 10 11 12 12 9 8 10 10 10 11 11 13 10 7 6 9 12 13 12 13 11 8 7 8 10 9 8 9 8 6 7 5
14 13 13 12 12 11 11 11 11 11 10 10 9 6 5 7 8 7 9 7 7 8 9 8 5 8 12 13 13 14 14 11 7 8 8 9 10 8 7 7 6 6
13 13 12 12 11 10 10 10 11 10 10 9 8 8 6 4 4 1 1 2 4 4 7 4 3 6 10 11 12 13 13 8 7 8 7 8 7 6 5 6 6 6
13 12 12 12 12 11 10 10 11 10 11 11 9 8 8 7 7 7 6 5 6 6 5 4 2 3 9 12 13 14 13 9 8 7 6 6 5 5 4 5 5 4
12 13 13 12 12 12 13 13 12 11 10 10 9 9 8 6 8 8 7 6 7 8 7 7 8 9 8 14 15 16 14 8 8 7 7 7 6 5 4 3 3 4
13 12 13 13 12 12 13 13 13 13 11 9 10 10 9 10 9 7 6 8 10 10 9 8 7 11 9 8 17 16 12 7 8 8 7 7 6 5 5 4 3 3
12 12 12 12 12 12 12 12 12 12 12 10 11 11 10 9 6 7 10 10 12 12 10 7 5 12 14 13 6 14 13 9 7 8 8 7 6 5 5 6 7 10
12 12 12 12 12 12 11 12 12 12 11 10 8 9 8 5 6 9 10 11 11 10 17 10 8 11 16 16 15 8 6 6 7 8 8 6 6 6 6 6 6 8
12 13 13 12 12 12 12 11 10 11 12 10 8 7 7 9 9 10 11 9 11 11 10 10 11 11 15 18 13 12 9 2 6 8 8 7 6 6 7 6 6 6
Wind_Direction
271 237 234 228 235 231 231 237 233 231 228 217 211 209 204 211 213 213 205 196 194 199 183 201 231 234 211 197 190 184 185 193 197 190 195 196 205 212 215 211 206 209
294 262 250 249 251 239 230 226 225 225 227 224 221 223 216 206 209 210 205 206 200 193 187 193 207 224 217 193 183 183 190 191 193 196 196 203 205 206 217 219 213 209
299 287 272 262 261 259 249 239 232 229 235 242 236 230 230 221 216 211 206 200 201 201 196 189 195 206 213 214 199 196 198 194 195 197 193 207 213 213 216 215 215 203
319 288 270 271 273 270 262 249 236 224 224 236 238 237 231 233 230 222 211 200 203 213 206 186 190 191 211 217 205 199 200 205 205 194 192 186 212 217 221 211 215 216
319 303 282 277 270 264 267 257 247 238 232 240 245 235 231 233 237 234 217 204 198 211 212 201 193 193 207 217 214 203 202 205 203 193 190 191 189 205 217 201 207 212
320 319 304 291 285 274 260 257 246 246 244 239 238 233 221 225 233 234 227 208 200 202 206 203 191 201 208 199 209 209 202 202 196 195 199 203 198 200 200 206 202 207
320 322 318 296 278 264 267 261 247 240 238 239 232 220 206 213 224 231 230 220 206 204 206 205 201 202 209 208 208 211 209 202 189 194 200 203 205 200 205 206 201 207
319 317 320 325 287 255 256 260 260 251 244 244 236 225 216 219 224 228 228 222 215 208 207 205 204 202 200 200 202 203 202 194 189 195 197 202 194 176 189 212 212 208
319 317 320 323 322 298 268 263 268 269 264 252 245 236 230 227 228 228 226 222 220 216 210 209 208 206 202 199 201 201 198 190 189 195 193 193 198 181 180 209 214 203
329 324 317 316 317 314 301 284 271 270 264 255 246 244 241 233 228 226 225 223 222 219 214 209 206 204 202 202 203 201 194 187 191 199 197 192 194 188 190 200 205 201
335 330 325 323 316 307 301 291 279 273 273 265 251 247 244 237 227 221 220 220 221 217 213 208 205 202 201 201 203 201 194 186 188 201 202 194 186 182 194 212 203 197
334 330 328 323 316 310 302 297 290 284 277 270 261 255 243 229 226 215 214 220 222 220 215 211 207 205 202 199 197 195 187 180 184 194 200 192 185 179 201 217 204 196
329 327 324 321 317 310 304 296 293 291 285 279 270 260 252 235 223 218 215 221 225 221 219 214 208 205 201 195 192 185 179 182 188 193 197 202 175 177 217 218 202 193
328 325 321 319 316 310 300 294 289 287 288 281 271 266 255 245 234 223 219 217 226 224 220 215 207 202 198 191 189 184 179 178 182 196 196 201 195 182 211 228 213 175
331 328 324 320 315 311 304 298 296 292 284 278 269 263 256 250 243 231 217 215 220 224 221 211 206 199 194 188 186 187 176 169 175 186 191 196 196 180 206 207 202 183
334 334 330 324 320 313 307 303 300 299 295 289 278 270 265 254 243 234 225 216 214 215 213 206 203 202 183 179 180 178 173 163 165 168 163 165 164 190 199 168 188 185
341 342 336 332 335 326 314 306 305 301 297 293 285 272 263 254 237 231 221 218 212 207 206 204 198 180 175 176 177 160 158 157 163 170 172 161 173 180 199 165 174 172
347 347 347 348 347 347 344 336 327 316 305 296 287 273 254 235 226 218 212 207 209 211 202 185 181 166 172 176 173 169 168 161 151 159 173 181 181 191 181 159 148 144
349 354 354 357 357 357 356 354 357 357 353 346 330 301 233 216 216 214 213 205 199 198 195 185 140 166 172 172 169 173 170 161 162 157 161 167 182 175 155 152 151 139
356 359 0 359 358 359 4 7 5 3 356 354 348 355 353 348 6 143 156 177 222 203 171 143 139 169 163 161 159 158 154 144 134 133 137 145 152 144 143 148 151 146
360 4 4 5 5 7 10 13 14 9 11 10 13 16 18 21 17 19 16 34 33 29 28 16 14 150 152 154 146 138 121 110 110 109 109 107 105 114 118 130 133 131
2 5 8 10 13 16 19 18 16 15 17 16 22 26 20 24 33 29 21 32 48 46 47 29 13 346 164 143 133 125 115 110 111 108 109 110 109 105 110 112 118 124
8 9 12 12 17 23 25 24 22 20 20 20 32 31 33 39 43 34 28 36 51 50 49 40 38 10 359 134 129 119 107 105 113 113 109 111 107 110 101 90 85 104
16 17 18 17 18 24 28 27 26 29 30 30 39 37 32 28 39 47 46 34 47 49 41 33 27 22 24 7 63 120 124 119 121 116 111 109 106 87 88 78 55 29
19 24 24 24 24 23 27 36 31 29 27 30 36 42 29 4 23 55 52 42 38 45 34 27 31 31 23 24 14 26 97 111 118 120 115 111 110 96 83 86 75 51
24 27 29 30 31 29 28 36 44 41 33 31 33 40 42 33 35 44 49 45 44 36 36 19 28 23 25 24 15 9 5 61 116 119 120 114 101 101 98 82 79 77